Find Local Weather

World > North America > United States > Florida

Boca Raton, Florida Regional Weather

Lat: 26.36N, Lon: 80.1W
Wx Zone: FLZ168
Warning FLW WEATHER ALERT - (More Info. Click Here) Warning
Feedback
Expires:201806211500;;882895
ASUS42 KTBW 211417
RWRFL 
FLORIDA REGIONAL WEATHER ROUNDUP
NATIONAL WEATHER SERVICE TAMPA BAY RUSKIN FL
1000 AM EDT THU JUN 21 2018

NOTE: "FAIR" INDICATES FEW OR NO CLOUDS BELOW 12,000 FEET WITH NO
SIGNIFICANT WEATHER AND/OR OBSTRUCTIONS TO VISIBILITY.


FLZ067-068-071>074-168-172>174-211500-
SOUTHEAST FLORIDA 
  
CITY           SKY/WX    TMP DP  RH WIND       PRES   REMARKS
W PALM BEACH   PTSUNNY   85  77  77 SW7       29.96S HX  95           
FT LAUDER-EXEC FAIR      88  77  69 W6        29.96S HX 100           
FT LAUDERDALE  PTSUNNY   86  78  77 SW9       29.95F HX  98           
POMPANO BEACH  FAIR      89  75  63 W6        29.96S HX  99           
PEMBROKE PINES FAIR      89  76  65 W8        29.97F HX 100           
OPA LOCKA      FAIR      87  76  69 W6        29.97F HX  97           
MIAMI          PTSUNNY   86  77  74 SW3       29.97F HX  97           
WEST KENDALL   FAIR      88  75  65 W7        29.97S HX  97           
HOMESTEAD      FAIR      87  76  70 W8        29.96F HX  97           

STATION/POSITION SKY/WX   TEMP    WIND        PRES    WAVE   SWELL
                          AIR SEA DIR/SP/G            HT/PER HT/PER
                          (F)     (DEG/KT/KT) (MB)    (FT/S) (FT/S)
PORT EVERGLADES            86     270/  5/  7 1014.6F
VIRGINIA KEY               85 87  230/  6/  7 1014.5S
FOWEY ROCKS                86 86  240/  8/  8 1015.6S
SETTLEMENT POINT           83     240/  8/  9 1015.0F

$$

  

SKY/WX - Weather  TMP - Temperature  DP - Dewpoint  RH - Relative Humidity
WIND - Wind Direction/Speed PRES - Barometric Pressure